owner,sensor,date,latitude,longitude,vertical_datum,wind_speed,wind_to_direction,wind_speed_of_gust,qcFlag 
DISL,ioos:station:DISL:MHPA:1,2013-12-01T00:00:00Z,30.6671,-87.9365,8.5,1.22,113.0,-9999.0,'1111122,1111122,1111122' 
DISL,ioos:station:DISL:MHPA:1,2013-12-01T00:30:00Z,30.6671,-87.9365,8.5,0.71,98.9,-9999.0,'1111122,1111122,1111122' 
DISL,ioos:station:DISL:MHPA:1,2013-12-01T01:00:00Z,30.6671,-87.9365,8.5,0.55,72.2,-9999.0,'1111122,1111122,1111122' 
DISL,ioos:station:DISL:MHPA:1,2013-12-01T01:30:00Z,30.6671,-87.9365,8.5,0.43,75.6,-9999.0,'1111122,1111122,1111122' 
DISL,ioos:station:DISL:MHPA:1,2013-12-01T02:00:00Z,30.6671,-87.9365,8.5,0.73,93.7,-9999.0,'1111122,1111122,1111122' 
DISL,ioos:station:DISL:MHPA:1,2013-12-01T02:30:00Z,30.6671,-87.9365,8.5,0.43,69.89,-9999.0,'1111122,1111122,1111122' 
DISL,ioos:station:DISL:MHPA:1,2013-12-01T03:00:00Z,30.6671,-87.9365,8.5,0.41,23.79,-9999.0,'1111122,1111122,1111122' 
DISL,ioos:station:DISL:MHPA:1,2013-12-01T03:30:00Z,30.6671,-87.9365,8.5,0.83,11.96,-9999.0,'1111122,1111122,1111122' 
DISL,ioos:station:DISL:MHPA:1,2013-12-01T04:00:00Z,30.6671,-87.9365,8.5,0.95,353.8,-9999.0,'1111122,1111122,1111122' 
DISL,ioos:station:DISL:MHPA:1,2013-12-01T04:30:00Z,30.6671,-87.9365,8.5,0.89,5.04,-9999.0,'1111122,1111122,1111122' 
DISL,ioos:station:DISL:MHPA:1,2013-12-01T05:00:00Z,30.6671,-87.9365,8.5,0.19,72.9,-9999.0,'1111122,1111122,1111122' 
DISL,ioos:station:DISL:MHPA:1,2013-12-01T05:30:00Z,30.6671,-87.9365,8.5,0.18,30.17,-9999.0,'1111122,1111122,1111122' 
DISL,ioos:station:DISL:MHPA:1,2013-12-01T06:00:00Z,30.6671,-87.9365,8.5,0.55,25.35,-9999.0,'1111122,1111122,1111122' 
DISL,ioos:station:DISL:MHPA:1,2013-12-01T06:30:00Z,30.6671,-87.9365,8.5,0.8,17.33,-9999.0,'1111122,1111122,1111122' 
DISL,ioos:station:DISL:MHPA:1,2013-12-01T07:00:00Z,30.6671,-87.9365,8.5,0.75,357.3,-9999.0,'1111122,1111122,1111122' 
DISL,ioos:station:DISL:MHPA:1,2013-12-01T07:30:00Z,30.6671,-87.9365,8.5,1.46,27.2,-9999.0,'1111122,1111122,1111122' 
DISL,ioos:station:DISL:MHPA:1,2013-12-01T08:00:00Z,30.6671,-87.9365,8.5,0.63,331.8,-9999.0,'1111122,1111122,1111122' 
DISL,ioos:station:DISL:MHPA:1,2013-12-01T08:30:00Z,30.6671,-87.9365,8.5,1.31,329.9,-9999.0,'1111122,1111122,1111122' 
DISL,ioos:station:DISL:MHPA:1,2013-12-01T09:00:00Z,30.6671,-87.9365,8.5,0.95,346.1,-9999.0,'1111122,1111122,1111122' 
DISL,ioos:station:DISL:MHPA:1,2013-12-01T09:30:00Z,30.6671,-87.9365,8.5,1.97,327.7,-9999.0,'1111122,1111122,1111122' 
DISL,ioos:station:DISL:MHPA:1,2013-12-01T10:00:00Z,30.6671,-87.9365,8.5,1.34,22.66,-9999.0,'1111122,1111122,1111122' 
DISL,ioos:station:DISL:MHPA:1,2013-12-01T10:30:00Z,30.6671,-87.9365,8.5,0.98,1.267,-9999.0,'1111122,1111122,1111122' 
DISL,ioos:station:DISL:MHPA:1,2013-12-01T11:00:00Z,30.6671,-87.9365,8.5,1.69,327.9,-9999.0,'1111122,1111122,1111122' 
DISL,ioos:station:DISL:MHPA:1,2013-12-01T11:30:00Z,30.6671,-87.9365,8.5,1.14,321.7,-9999.0,'1111122,1111122,1111122' 
DISL,ioos:station:DISL:MHPA:1,2013-12-01T12:00:00Z,30.6671,-87.9365,8.5,1.53,356.4,-9999.0,'1111122,1111122,1111122' 
DISL,ioos:station:DISL:MHPA:1,2013-12-01T12:30:00Z,30.6671,-87.9365,8.5,2.52,348.1,-9999.0,'1111122,1111122,1111122' 
DISL,ioos:station:DISL:MHPA:1,2013-12-01T13:00:00Z,30.6671,-87.9365,8.5,1.41,6.861,-9999.0,'1111122,1111122,1111122' 
DISL,ioos:station:DISL:MHPA:1,2013-12-01T13:30:00Z,30.6671,-87.9365,8.5,2.51,347.3,-9999.0,'1111122,1111122,1111122' 
DISL,ioos:station:DISL:MHPA:1,2013-12-01T14:00:00Z,30.6671,-87.9365,8.5,1.69,357.8,-9999.0,'1111122,1111122,1111122' 
DISL,ioos:station:DISL:MHPA:1,2013-12-01T14:30:00Z,30.6671,-87.9365,8.5,2.07,359.3,-9999.0,'1111122,1111122,1111122' 
DISL,ioos:station:DISL:MHPA:1,2013-12-01T15:00:00Z,30.6671,-87.9365,8.5,0.87,31.22,-9999.0,'1111122,1111122,1111122' 
DISL,ioos:station:DISL:MHPA:1,2013-12-01T15:30:00Z,30.6671,-87.9365,8.5,0.43,220.4,-9999.0,'1111122,1111122,1111122' 
DISL,ioos:station:DISL:MHPA:1,2013-12-01T16:00:00Z,30.6671,-87.9365,8.5,1.2,234.1,-9999.0,'1111122,1111122,1111122' 
DISL,ioos:station:DISL:MHPA:1,2013-12-01T16:30:00Z,30.6671,-87.9365,8.5,1.27,186.9,-9999.0,'1111122,1111122,1111122' 
DISL,ioos:station:DISL:MHPA:1,2013-12-01T17:00:00Z,30.6671,-87.9365,8.5,0.65,185.4,-9999.0,'1111122,1111122,1111122' 
DISL,ioos:station:DISL:MHPA:1,2013-12-01T17:30:00Z,30.6671,-87.9365,8.5,1.08,170.1,-9999.0,'1111122,1111122,1111122' 
DISL,ioos:station:DISL:MHPA:1,2013-12-01T18:00:00Z,30.6671,-87.9365,8.5,1.38,223.9,-9999.0,'1111122,1111122,1111122' 
DISL,ioos:station:DISL:MHPA:1,2013-12-01T18:30:00Z,30.6671,-87.9365,8.5,1.84,195.1,-9999.0,'1111122,1111122,1111122' 
DISL,ioos:station:DISL:MHPA:1,2013-12-01T19:00:00Z,30.6671,-87.9365,8.5,0.63,31.25,-9999.0,'1111122,1111122,1111122' 
DISL,ioos:station:DISL:MHPA:1,2013-12-01T19:30:00Z,30.6671,-87.9365,8.5,1.91,28.29,-9999.0,'1111122,1111122,1111122' 
DISL,ioos:station:DISL:MHPA:1,2013-12-01T20:00:00Z,30.6671,-87.9365,8.5,1.8,27.31,-9999.0,'1111122,1111122,1111122' 
DISL,ioos:station:DISL:MHPA:1,2013-12-01T20:30:00Z,30.6671,-87.9365,8.5,1.68,54.83,-9999.0,'1111122,1111122,1111122' 
DISL,ioos:station:DISL:MHPA:1,2013-12-01T21:00:00Z,30.6671,-87.9365,8.5,1.67,26.74,-9999.0,'1111122,1111122,1111122' 
DISL,ioos:station:DISL:MHPA:1,2013-12-01T21:30:00Z,30.6671,-87.9365,8.5,1.05,56.32,-9999.0,'1111122,1111122,1111122' 
DISL,ioos:station:DISL:MHPA:1,2013-12-01T22:00:00Z,30.6671,-87.9365,8.5,0.9,34.06,-9999.0,'1111122,1111122,1111122' 
DISL,ioos:station:DISL:MHPA:1,2013-12-01T22:30:00Z,30.6671,-87.9365,8.5,0.71,51.37,-9999.0,'1111122,1111122,1111122' 
DISL,ioos:station:DISL:MHPA:1,2013-12-01T23:00:00Z,30.6671,-87.9365,8.5,1.2,58.36,-9999.0,'1111122,1111122,1111122' 
DISL,ioos:station:DISL:MHPA:1,2013-12-01T23:30:00Z,30.6671,-87.9365,8.5,1.09,61.79,-9999.0,'1111122,1111122,1111122' 
DISL,ioos:station:DISL:MHPA:1,2013-12-02T00:00:00Z,30.6671,-87.9365,8.5,0.81,100.9,-9999.0,'1111122,1111122,1111122' 
DISL,ioos:station:DISL:MHPA:1,2013-12-02T00:30:00Z,30.6671,-87.9365,8.5,1.08,106.3,-9999.0,'1111122,1111122,1111122' 
DISL,ioos:station:DISL:MHPA:1,2013-12-02T01:00:00Z,30.6671,-87.9365,8.5,0.32,89.1,-9999.0,'1111122,1111122,1111122' 
DISL,ioos:station:DISL:MHPA:1,2013-12-02T01:30:00Z,30.6671,-87.9365,8.5,0.12,96.9,-9999.0,'1111122,1111122,1111122' 
DISL,ioos:station:DISL:MHPA:1,2013-12-02T02:00:00Z,30.6671,-87.9365,8.5,1.26,134.0,-9999.0,'1111122,1111122,1111122' 
DISL,ioos:station:DISL:MHPA:1,2013-12-02T02:30:00Z,30.6671,-87.9365,8.5,0.46,19.14,-9999.0,'1111122,1111122,1111122' 
DISL,ioos:station:DISL:MHPA:1,2013-12-02T03:00:00Z,30.6671,-87.9365,8.5,0.84,28.11,-9999.0,'1111122,1111122,1111122' 
DISL,ioos:station:DISL:MHPA:1,2013-12-02T03:30:00Z,30.6671,-87.9365,8.5,0.4,105.0,-9999.0,'1111122,1111122,1111122' 
DISL,ioos:station:DISL:MHPA:1,2013-12-02T04:00:00Z,30.6671,-87.9365,8.5,1.32,112.3,-9999.0,'1111122,1111122,1111122' 
DISL,ioos:station:DISL:MHPA:1,2013-12-02T04:30:00Z,30.6671,-87.9365,8.5,0.23,4.158,-9999.0,'1111122,1111122,1111122' 
DISL,ioos:station:DISL:MHPA:1,2013-12-02T05:00:00Z,30.6671,-87.9365,8.5,0.62,59.09,-9999.0,'1111122,1111122,1111122' 
DISL,ioos:station:DISL:MHPA:1,2013-12-02T05:30:00Z,30.6671,-87.9365,8.5,1.21,110.6,-9999.0,'1111122,1111122,1111122' 
DISL,ioos:station:DISL:MHPA:1,2013-12-02T06:00:00Z,30.6671,-87.9365,8.5,0.67,65.89,-9999.0,'1111122,1111122,1111122' 
DISL,ioos:station:DISL:MHPA:1,2013-12-02T06:30:00Z,30.6671,-87.9365,8.5,0.53,114.8,-9999.0,'1111122,1111122,1111122' 
DISL,ioos:station:DISL:MHPA:1,2013-12-02T07:00:00Z,30.6671,-87.9365,8.5,1.16,116.2,-9999.0,'1111122,1111122,1111122' 
DISL,ioos:station:DISL:MHPA:1,2013-12-02T07:30:00Z,30.6671,-87.9365,8.5,0.82,87.9,-9999.0,'1111122,1111122,1111122' 
DISL,ioos:station:DISL:MHPA:1,2013-12-02T08:00:00Z,30.6671,-87.9365,8.5,0.81,18.32,-9999.0,'1111122,1111122,1111122' 
DISL,ioos:station:DISL:MHPA:1,2013-12-02T08:30:00Z,30.6671,-87.9365,8.5,1.7,10.82,-9999.0,'1111122,1111122,1111122' 
DISL,ioos:station:DISL:MHPA:1,2013-12-02T09:00:00Z,30.6671,-87.9365,8.5,1.02,350.1,-9999.0,'1111122,1111122,1111122' 
DISL,ioos:station:DISL:MHPA:1,2013-12-02T09:30:00Z,30.6671,-87.9365,8.5,0.66,62.14,-9999.0,'1111122,1111122,1111122' 
DISL,ioos:station:DISL:MHPA:1,2013-12-02T10:00:00Z,30.6671,-87.9365,8.5,0.99,32.63,-9999.0,'1111122,1111122,1111122' 
DISL,ioos:station:DISL:MHPA:1,2013-12-02T10:30:00Z,30.6671,-87.9365,8.5,0.73,305.2,-9999.0,'1111122,1111122,1111122' 
DISL,ioos:station:DISL:MHPA:1,2013-12-02T11:00:00Z,30.6671,-87.9365,8.5,0.19,95.1,-9999.0,'1111122,1111122,1111122' 
DISL,ioos:station:DISL:MHPA:1,2013-12-02T11:30:00Z,30.6671,-87.9365,8.5,0.67,96.1,-9999.0,'1111122,1111122,1111122' 
DISL,ioos:station:DISL:MHPA:1,2013-12-02T12:00:00Z,30.6671,-87.9365,8.5,0.59,127.1,-9999.0,'1111122,1111122,1111122' 
DISL,ioos:station:DISL:MHPA:1,2013-12-02T12:30:00Z,30.6671,-87.9365,8.5,0.83,105.2,-9999.0,'1111122,1111122,1111122' 
DISL,ioos:station:DISL:MHPA:1,2013-12-02T13:00:00Z,30.6671,-87.9365,8.5,0.09,10.83,-9999.0,'1111122,1111122,1111122' 
DISL,ioos:station:DISL:MHPA:1,2013-12-02T13:30:00Z,30.6671,-87.9365,8.5,0.02,328.9,-9999.0,'1111122,1111122,1111122' 
DISL,ioos:station:DISL:MHPA:1,2013-12-02T14:00:00Z,30.6671,-87.9365,8.5,0.05,187.7,-9999.0,'1111122,1111122,1111122' 
DISL,ioos:station:DISL:MHPA:1,2013-12-02T14:30:00Z,30.6671,-87.9365,8.5,2.27,165.8,-9999.0,'1111122,1111122,1111122' 
DISL,ioos:station:DISL:MHPA:1,2013-12-02T15:00:00Z,30.6671,-87.9365,8.5,2.28,177.4,-9999.0,'1111122,1111122,1111122' 
DISL,ioos:station:DISL:MHPA:1,2013-12-02T15:30:00Z,30.6671,-87.9365,8.5,2.43,161.8,-9999.0,'1111122,1111122,1111122' 
DISL,ioos:station:DISL:MHPA:1,2013-12-02T16:00:00Z,30.6671,-87.9365,8.5,2.0,170.6,-9999.0,'1111122,1111122,1111122' 
DISL,ioos:station:DISL:MHPA:1,2013-12-02T16:30:00Z,30.6671,-87.9365,8.5,2.18,178.4,-9999.0,'1111122,1111122,1111122' 
DISL,ioos:station:DISL:MHPA:1,2013-12-02T17:00:00Z,30.6671,-87.9365,8.5,2.79,174.7,-9999.0,'1111122,1111122,1111122' 
DISL,ioos:station:DISL:MHPA:1,2013-12-02T17:30:00Z,30.6671,-87.9365,8.5,2.81,181.7,-9999.0,'1111122,1111122,1111122' 
DISL,ioos:station:DISL:MHPA:1,2013-12-02T18:00:00Z,30.6671,-87.9365,8.5,3.13,174.9,-9999.0,'1111122,1111122,1111122' 
DISL,ioos:station:DISL:MHPA:1,2013-12-02T18:30:00Z,30.6671,-87.9365,8.5,3.27,178.4,-9999.0,'1111122,1111122,1111122' 
DISL,ioos:station:DISL:MHPA:1,2013-12-02T19:00:00Z,30.6671,-87.9365,8.5,3.88,179.4,-9999.0,'1111122,1111122,1111122' 
DISL,ioos:station:DISL:MHPA:1,2013-12-02T19:30:00Z,30.6671,-87.9365,8.5,3.62,179.2,-9999.0,'1111122,1111122,1111122' 
DISL,ioos:station:DISL:MHPA:1,2013-12-02T20:00:00Z,30.6671,-87.9365,8.5,3.61,183.7,-9999.0,'1111122,1111122,1111122' 
DISL,ioos:station:DISL:MHPA:1,2013-12-02T20:30:00Z,30.6671,-87.9365,8.5,4.18,179.6,-9999.0,'1111122,1111122,1111122' 
DISL,ioos:station:DISL:MHPA:1,2013-12-02T21:00:00Z,30.6671,-87.9365,8.5,4.77,175.8,-9999.0,'1111122,1111122,1111122' 
DISL,ioos:station:DISL:MHPA:1,2013-12-02T21:30:00Z,30.6671,-87.9365,8.5,5.66,163.4,-9999.0,'1111122,1111122,1111122' 
DISL,ioos:station:DISL:MHPA:1,2013-12-02T22:00:00Z,30.6671,-87.9365,8.5,6.78,165.4,-9999.0,'1111122,1111122,1111122' 
DISL,ioos:station:DISL:MHPA:1,2013-12-02T22:30:00Z,30.6671,-87.9365,8.5,6.27,159.1,-9999.0,'1111122,1111122,1111122' 
DISL,ioos:station:DISL:MHPA:1,2013-12-02T23:00:00Z,30.6671,-87.9365,8.5,3.84,157.7,-9999.0,'1111122,1111122,1111122' 
DISL,ioos:station:DISL:MHPA:1,2013-12-02T23:30:00Z,30.6671,-87.9365,8.5,2.05,139.6,-9999.0,'1111122,1111122,1111122' 
DISL,ioos:station:DISL:MHPA:1,2013-12-03T00:00:00Z,30.6671,-87.9365,8.5,3.02,150.4,-9999.0,'1111122,1111122,1111122' 
DISL,ioos:station:DISL:MHPA:1,2013-12-03T00:30:00Z,30.6671,-87.9365,8.5,2.74,139.3,-9999.0,'1111122,1111122,1111122' 
DISL,ioos:station:DISL:MHPA:1,2013-12-03T01:00:00Z,30.6671,-87.9365,8.5,2.9,129.7,-9999.0,'1111122,1111122,1111122' 
DISL,ioos:station:DISL:MHPA:1,2013-12-03T01:30:00Z,30.6671,-87.9365,8.5,2.58,129.5,-9999.0,'1111122,1111122,1111122' 
DISL,ioos:station:DISL:MHPA:1,2013-12-03T02:00:00Z,30.6671,-87.9365,8.5,3.02,136.8,-9999.0,'1111122,1111122,1111122' 
DISL,ioos:station:DISL:MHPA:1,2013-12-03T02:30:00Z,30.6671,-87.9365,8.5,2.92,132.8,-9999.0,'1111122,1111122,1111122' 
DISL,ioos:station:DISL:MHPA:1,2013-12-03T03:00:00Z,30.6671,-87.9365,8.5,2.8,126.8,-9999.0,'1111122,1111122,1111122' 
DISL,ioos:station:DISL:MHPA:1,2013-12-03T03:30:00Z,30.6671,-87.9365,8.5,2.92,131.0,-9999.0,'1111122,1111122,1111122' 
DISL,ioos:station:DISL:MHPA:1,2013-12-03T04:00:00Z,30.6671,-87.9365,8.5,1.72,125.3,-9999.0,'1111122,1111122,1111122' 
DISL,ioos:station:DISL:MHPA:1,2013-12-03T04:30:00Z,30.6671,-87.9365,8.5,2.75,137.5,-9999.0,'1111122,1111122,1111122' 
DISL,ioos:station:DISL:MHPA:1,2013-12-03T05:00:00Z,30.6671,-87.9365,8.5,3.93,151.8,-9999.0,'1111122,1111122,1111122' 
DISL,ioos:station:DISL:MHPA:1,2013-12-03T05:30:00Z,30.6671,-87.9365,8.5,4.34,153.0,-9999.0,'1111122,1111122,1111122' 
DISL,ioos:station:DISL:MHPA:1,2013-12-03T06:00:00Z,30.6671,-87.9365,8.5,4.2,153.7,-9999.0,'1111122,1111122,1111122' 
DISL,ioos:station:DISL:MHPA:1,2013-12-03T06:30:00Z,30.6671,-87.9365,8.5,3.87,153.2,-9999.0,'1111122,1111122,1111122' 
DISL,ioos:station:DISL:MHPA:1,2013-12-03T07:00:00Z,30.6671,-87.9365,8.5,3.6,155.4,-9999.0,'1111122,1111122,1111122' 
DISL,ioos:station:DISL:MHPA:1,2013-12-03T07:30:00Z,30.6671,-87.9365,8.5,3.28,156.5,-9999.0,'1111122,1111122,1111122' 
DISL,ioos:station:DISL:MHPA:1,2013-12-03T08:00:00Z,30.6671,-87.9365,8.5,3.76,151.3,-9999.0,'1111122,1111122,1111122' 
DISL,ioos:station:DISL:MHPA:1,2013-12-03T08:30:00Z,30.6671,-87.9365,8.5,3.85,147.6,-9999.0,'1111122,1111122,1111122' 
DISL,ioos:station:DISL:MHPA:1,2013-12-03T09:00:00Z,30.6671,-87.9365,8.5,2.98,152.6,-9999.0,'1111122,1111122,1111122' 
DISL,ioos:station:DISL:MHPA:1,2013-12-03T09:30:00Z,30.6671,-87.9365,8.5,1.85,115.1,-9999.0,'1111122,1111122,1111122' 
DISL,ioos:station:DISL:MHPA:1,2013-12-03T10:00:00Z,30.6671,-87.9365,8.5,2.67,152.4,-9999.0,'1111122,1111122,1111122' 
DISL,ioos:station:DISL:MHPA:1,2013-12-03T10:30:00Z,30.6671,-87.9365,8.5,3.46,150.0,-9999.0,'1111122,1111122,1111122' 
DISL,ioos:station:DISL:MHPA:1,2013-12-03T11:00:00Z,30.6671,-87.9365,8.5,3.71,145.0,-9999.0,'1111122,1111122,1111122' 
DISL,ioos:station:DISL:MHPA:1,2013-12-03T11:30:00Z,30.6671,-87.9365,8.5,3.47,147.5,-9999.0,'1111122,1111122,1111122' 
DISL,ioos:station:DISL:MHPA:1,2013-12-03T12:00:00Z,30.6671,-87.9365,8.5,3.68,151.6,-9999.0,'1111122,1111122,1111122' 
DISL,ioos:station:DISL:MHPA:1,2013-12-03T12:30:00Z,30.6671,-87.9365,8.5,3.45,145.8,-9999.0,'1111122,1111122,1111122' 
DISL,ioos:station:DISL:MHPA:1,2013-12-03T13:00:00Z,30.6671,-87.9365,8.5,3.5,142.7,-9999.0,'1111122,1111122,1111122' 
DISL,ioos:station:DISL:MHPA:1,2013-12-03T13:30:00Z,30.6671,-87.9365,8.5,3.97,155.7,-9999.0,'1111122,1111122,1111122' 
DISL,ioos:station:DISL:MHPA:1,2013-12-03T14:00:00Z,30.6671,-87.9365,8.5,4.41,151.3,-9999.0,'1111122,1111122,1111122' 
DISL,ioos:station:DISL:MHPA:1,2013-12-03T14:30:00Z,30.6671,-87.9365,8.5,4.14,155.5,-9999.0,'1111122,1111122,1111122' 
DISL,ioos:station:DISL:MHPA:1,2013-12-03T15:00:00Z,30.6671,-87.9365,8.5,3.26,171.8,-9999.0,'1111122,1111122,1111122' 
DISL,ioos:station:DISL:MHPA:1,2013-12-03T15:30:00Z,30.6671,-87.9365,8.5,4.08,159.9,-9999.0,'1111122,1111122,1111122' 
DISL,ioos:station:DISL:MHPA:1,2013-12-03T16:00:00Z,30.6671,-87.9365,8.5,5.09,160.6,-9999.0,'1111122,1111122,1111122' 
DISL,ioos:station:DISL:MHPA:1,2013-12-03T16:30:00Z,30.6671,-87.9365,8.5,4.8,169.9,-9999.0,'1111122,1111122,1111122' 
DISL,ioos:station:DISL:MHPA:1,2013-12-03T17:00:00Z,30.6671,-87.9365,8.5,5.31,166.2,-9999.0,'1111122,1111122,1111122' 
DISL,ioos:station:DISL:MHPA:1,2013-12-03T17:30:00Z,30.6671,-87.9365,8.5,5.5,160.5,-9999.0,'1111122,1111122,1111122' 
DISL,ioos:station:DISL:MHPA:1,2013-12-03T18:00:00Z,30.6671,-87.9365,8.5,4.98,162.6,-9999.0,'1111122,1111122,1111122' 
DISL,ioos:station:DISL:MHPA:1,2013-12-03T18:30:00Z,30.6671,-87.9365,8.5,5.49,164.7,-9999.0,'1111122,1111122,1111122' 
DISL,ioos:station:DISL:MHPA:1,2013-12-03T19:00:00Z,30.6671,-87.9365,8.5,5.59,163.8,-9999.0,'1111122,1111122,1111122' 
DISL,ioos:station:DISL:MHPA:1,2013-12-03T19:30:00Z,30.6671,-87.9365,8.5,5.67,162.9,-9999.0,'1111122,1111122,1111122' 
DISL,ioos:station:DISL:MHPA:1,2013-12-03T20:00:00Z,30.6671,-87.9365,8.5,5.48,163.2,-9999.0,'1111122,1111122,1111122' 
DISL,ioos:station:DISL:MHPA:1,2013-12-03T20:30:00Z,30.6671,-87.9365,8.5,5.16,157.2,-9999.0,'1111122,1111122,1111122' 
DISL,ioos:station:DISL:MHPA:1,2013-12-03T21:00:00Z,30.6671,-87.9365,8.5,5.57,158.7,-9999.0,'1111122,1111122,1111122' 
DISL,ioos:station:DISL:MHPA:1,2013-12-03T21:30:00Z,30.6671,-87.9365,8.5,5.78,159.6,-9999.0,'1111122,1111122,1111122' 
DISL,ioos:station:DISL:MHPA:1,2013-12-03T22:00:00Z,30.6671,-87.9365,8.5,4.92,165.9,-9999.0,'1111122,1111122,1111122' 
DISL,ioos:station:DISL:MHPA:1,2013-12-03T22:30:00Z,30.6671,-87.9365,8.5,5.12,157.8,-9999.0,'1111122,1111122,1111122' 
DISL,ioos:station:DISL:MHPA:1,2013-12-03T23:00:00Z,30.6671,-87.9365,8.5,5.29,160.4,-9999.0,'1111122,1111122,1111122' 
DISL,ioos:station:DISL:MHPA:1,2013-12-03T23:30:00Z,30.6671,-87.9365,8.5,4.6,163.7,-9999.0,'1111122,1111122,1111122' 
DISL,ioos:station:DISL:MHPA:1,2013-12-04T00:00:00Z,30.6671,-87.9365,8.5,3.64,161.1,-9999.0,'1111122,1111122,1111122' 
DISL,ioos:station:DISL:MHPA:1,2013-12-04T00:30:00Z,30.6671,-87.9365,8.5,3.47,153.1,-9999.0,'1111122,1111122,1111122' 
DISL,ioos:station:DISL:MHPA:1,2013-12-04T01:00:00Z,30.6671,-87.9365,8.5,3.18,150.9,-9999.0,'1111122,1111122,1111122' 
DISL,ioos:station:DISL:MHPA:1,2013-12-04T01:30:00Z,30.6671,-87.9365,8.5,4.91,157.5,-9999.0,'1111122,1111122,1111122' 
DISL,ioos:station:DISL:MHPA:1,2013-12-04T02:00:00Z,30.6671,-87.9365,8.5,5.32,157.8,-9999.0,'1111122,1111122,1111122' 
DISL,ioos:station:DISL:MHPA:1,2013-12-04T02:30:00Z,30.6671,-87.9365,8.5,4.84,162.5,-9999.0,'1111122,1111122,1111122' 
DISL,ioos:station:DISL:MHPA:1,2013-12-04T03:00:00Z,30.6671,-87.9365,8.5,4.35,158.9,-9999.0,'1111122,1111122,1111122' 
DISL,ioos:station:DISL:MHPA:1,2013-12-04T03:30:00Z,30.6671,-87.9365,8.5,4.47,158.2,-9999.0,'1111122,1111122,1111122' 
DISL,ioos:station:DISL:MHPA:1,2013-12-04T04:00:00Z,30.6671,-87.9365,8.5,3.72,165.1,-9999.0,'1111122,1111122,1111122' 
DISL,ioos:station:DISL:MHPA:1,2013-12-04T04:30:00Z,30.6671,-87.9365,8.5,3.77,162.3,-9999.0,'1111122,1111122,1111122' 
DISL,ioos:station:DISL:MHPA:1,2013-12-04T05:00:00Z,30.6671,-87.9365,8.5,3.19,147.9,-9999.0,'1111122,1111122,1111122' 
DISL,ioos:station:DISL:MHPA:1,2013-12-04T05:30:00Z,30.6671,-87.9365,8.5,3.02,155.7,-9999.0,'1111122,1111122,1111122' 
DISL,ioos:station:DISL:MHPA:1,2013-12-04T06:00:00Z,30.6671,-87.9365,8.5,2.9,161.9,-9999.0,'1111122,1111122,1111122' 
DISL,ioos:station:DISL:MHPA:1,2013-12-04T06:30:00Z,30.6671,-87.9365,8.5,3.41,155.3,-9999.0,'1111122,1111122,1111122' 
DISL,ioos:station:DISL:MHPA:1,2013-12-04T07:00:00Z,30.6671,-87.9365,8.5,3.2,143.8,-9999.0,'1111122,1111122,1111122' 
DISL,ioos:station:DISL:MHPA:1,2013-12-04T07:30:00Z,30.6671,-87.9365,8.5,2.82,141.3,-9999.0,'1111122,1111122,1111122' 
DISL,ioos:station:DISL:MHPA:1,2013-12-04T08:00:00Z,30.6671,-87.9365,8.5,2.91,151.5,-9999.0,'1111122,1111122,1111122' 
DISL,ioos:station:DISL:MHPA:1,2013-12-04T08:30:00Z,30.6671,-87.9365,8.5,2.45,140.6,-9999.0,'1111122,1111122,1111122' 
DISL,ioos:station:DISL:MHPA:1,2013-12-04T09:00:00Z,30.6671,-87.9365,8.5,3.06,147.8,-9999.0,'1111122,1111122,1111122' 
DISL,ioos:station:DISL:MHPA:1,2013-12-04T09:30:00Z,30.6671,-87.9365,8.5,3.44,149.6,-9999.0,'1111122,1111122,1111122' 
DISL,ioos:station:DISL:MHPA:1,2013-12-04T10:00:00Z,30.6671,-87.9365,8.5,2.95,150.6,-9999.0,'1111122,1111122,1111122' 
DISL,ioos:station:DISL:MHPA:1,2013-12-04T10:30:00Z,30.6671,-87.9365,8.5,3.18,165.3,-9999.0,'1111122,1111122,1111122' 
DISL,ioos:station:DISL:MHPA:1,2013-12-04T11:00:00Z,30.6671,-87.9365,8.5,2.72,164.9,-9999.0,'1111122,1111122,1111122' 
DISL,ioos:station:DISL:MHPA:1,2013-12-04T11:30:00Z,30.6671,-87.9365,8.5,2.75,155.0,-9999.0,'1111122,1111122,1111122' 
DISL,ioos:station:DISL:MHPA:1,2013-12-04T12:00:00Z,30.6671,-87.9365,8.5,2.92,161.3,-9999.0,'1111122,1111122,1111122' 
DISL,ioos:station:DISL:MHPA:1,2013-12-04T12:30:00Z,30.6671,-87.9365,8.5,2.99,143.4,-9999.0,'1111122,1111122,1111122' 
DISL,ioos:station:DISL:MHPA:1,2013-12-04T13:00:00Z,30.6671,-87.9365,8.5,2.42,131.6,-9999.0,'1111122,1111122,1111122' 
DISL,ioos:station:DISL:MHPA:1,2013-12-04T13:30:00Z,30.6671,-87.9365,8.5,2.62,135.1,-9999.0,'1111122,1111122,1111122' 
DISL,ioos:station:DISL:MHPA:1,2013-12-04T14:00:00Z,30.6671,-87.9365,8.5,2.71,152.7,-9999.0,'1111122,1111122,1111122' 
DISL,ioos:station:DISL:MHPA:1,2013-12-04T14:30:00Z,30.6671,-87.9365,8.5,2.01,160.9,-9999.0,'1111122,1111122,1111122' 
DISL,ioos:station:DISL:MHPA:1,2013-12-04T15:00:00Z,30.6671,-87.9365,8.5,1.98,179.9,-9999.0,'1111122,1111122,1111122' 
DISL,ioos:station:DISL:MHPA:1,2013-12-04T15:30:00Z,30.6671,-87.9365,8.5,1.03,242.9,-9999.0,'1111122,1111122,1111122' 
DISL,ioos:station:DISL:MHPA:1,2013-12-04T16:00:00Z,30.6671,-87.9365,8.5,2.59,267.8,-9999.0,'1111122,1111122,1111122' 
DISL,ioos:station:DISL:MHPA:1,2013-12-04T16:30:00Z,30.6671,-87.9365,8.5,1.96,159.6,-9999.0,'1111122,1111122,1111122' 
DISL,ioos:station:DISL:MHPA:1,2013-12-04T17:00:00Z,30.6671,-87.9365,8.5,3.3,157.4,-9999.0,'1111122,1111122,1111122' 
DISL,ioos:station:DISL:MHPA:1,2013-12-04T17:30:00Z,30.6671,-87.9365,8.5,4.94,158.2,-9999.0,'1111122,1111122,1111122' 
DISL,ioos:station:DISL:MHPA:1,2013-12-04T18:00:00Z,30.6671,-87.9365,8.5,5.31,156.7,-9999.0,'1111122,1111122,1111122' 
DISL,ioos:station:DISL:MHPA:1,2013-12-04T18:30:00Z,30.6671,-87.9365,8.5,5.13,156.7,-9999.0,'1111122,1111122,1111122' 
DISL,ioos:station:DISL:MHPA:1,2013-12-04T19:00:00Z,30.6671,-87.9365,8.5,5.64,158.2,-9999.0,'1111122,1111122,1111122' 
DISL,ioos:station:DISL:MHPA:1,2013-12-04T19:30:00Z,30.6671,-87.9365,8.5,6.19,162.2,-9999.0,'1111122,1111122,1111122' 
DISL,ioos:station:DISL:MHPA:1,2013-12-04T20:00:00Z,30.6671,-87.9365,8.5,6.11,166.4,-9999.0,'1111122,1111122,1111122' 
DISL,ioos:station:DISL:MHPA:1,2013-12-04T20:30:00Z,30.6671,-87.9365,8.5,5.64,161.7,-9999.0,'1111122,1111122,1111122' 
DISL,ioos:station:DISL:MHPA:1,2013-12-04T21:00:00Z,30.6671,-87.9365,8.5,5.07,157.2,-9999.0,'1111122,1111122,1111122' 
DISL,ioos:station:DISL:MHPA:1,2013-12-04T21:30:00Z,30.6671,-87.9365,8.5,4.52,157.3,-9999.0,'1111122,1111122,1111122' 
DISL,ioos:station:DISL:MHPA:1,2013-12-04T22:00:00Z,30.6671,-87.9365,8.5,4.25,165.0,-9999.0,'1111122,1111122,1111122' 
DISL,ioos:station:DISL:MHPA:1,2013-12-04T22:30:00Z,30.6671,-87.9365,8.5,3.94,156.1,-9999.0,'1111122,1111122,1111122' 
DISL,ioos:station:DISL:MHPA:1,2013-12-04T23:00:00Z,30.6671,-87.9365,8.5,2.5,147.5,-9999.0,'1111122,1111122,1111122' 
DISL,ioos:station:DISL:MHPA:1,2013-12-04T23:30:00Z,30.6671,-87.9365,8.5,2.63,141.5,-9999.0,'1111122,1111122,1111122' 
DISL,ioos:station:DISL:MHPA:1,2013-12-05T00:00:00Z,30.6671,-87.9365,8.5,4.12,133.3,-9999.0,'1111122,1111122,1111122' 
DISL,ioos:station:DISL:MHPA:1,2013-12-05T00:30:00Z,30.6671,-87.9365,8.5,4.0,138.2,-9999.0,'1111122,1111122,1111122' 
DISL,ioos:station:DISL:MHPA:1,2013-12-05T01:00:00Z,30.6671,-87.9365,8.5,3.77,139.9,-9999.0,'1111122,1111122,1111122' 
DISL,ioos:station:DISL:MHPA:1,2013-12-05T01:30:00Z,30.6671,-87.9365,8.5,4.8,161.7,-9999.0,'1111122,1111122,1111122' 
DISL,ioos:station:DISL:MHPA:1,2013-12-05T02:00:00Z,30.6671,-87.9365,8.5,3.77,147.7,-9999.0,'1111122,1111122,1111122' 
DISL,ioos:station:DISL:MHPA:1,2013-12-05T02:30:00Z,30.6671,-87.9365,8.5,3.21,142.5,-9999.0,'1111122,1111122,1111122' 
DISL,ioos:station:DISL:MHPA:1,2013-12-05T03:00:00Z,30.6671,-87.9365,8.5,2.81,135.9,-9999.0,'1111122,1111122,1111122' 
DISL,ioos:station:DISL:MHPA:1,2013-12-05T03:30:00Z,30.6671,-87.9365,8.5,3.5,167.9,-9999.0,'1111122,1111122,1111122' 
DISL,ioos:station:DISL:MHPA:1,2013-12-05T04:00:00Z,30.6671,-87.9365,8.5,2.62,188.7,-9999.0,'1111122,1111122,1111122' 
DISL,ioos:station:DISL:MHPA:1,2013-12-05T04:30:00Z,30.6671,-87.9365,8.5,3.61,163.7,-9999.0,'1111122,1111122,1111122' 